NOOR (45529 NORAD) Tracking and Keplerian Element Data

This shows tracking and keplerian element data for the satellite.

Feedback or suggestion? Click here.




ElementValue
Catalog45529
NameNOOR
Epoch Orbit557
Epoch Day149.26966756
Epoch Year2020
RAAN27.7888
Inclination59.8129
Eccentricity0.0007615
Argument of Perigee321.6723
Mean Anonmoly148.8401
Mean Motion15.45320907
Decay Rate4.36E-05
L11 45529U 20024A 20149.26966756 .00004360 00000-0 97972-4 0 9997
L22 45529 59.8129 27.7888 0007615 321.6723 148.8401 15.45320907 5573

Live tracking and technical data element details for NOOR (NORAD 45529). NOOR can be tracked NOW for your location showing map with azimuth and elevation plus other details from your city location.

Track the satellite on the map from your city or location and see movement details for azimuth, elevation, latitude, longitude, range, height, and movement on the map or in text.







IsCatalogInMostPopularTable: catalog: 45529, numindb: 10
Update: records affected: 1



GetName: 45529 NOOR

Hit Count: updated at: Sat, 30 May 2020 15:36:50 GMT